CZ-6A DEB, 61132

Orbit data source: Space-Track

CZ-6A DEB, 61132 is space debris in LEO originally from a launch on Tue, 06 Aug 2024 UTC launched from the Taiyaun Space Center, China (TSC). Debris objects in space refer to the collection of defunct objects orbiting the Earth. Examples of debris include non-operational satellites, rocket bodies, and fragments generated from explosions, collisions, or faulty payload assembly.

Loading next visibility...
Identifier
61132, 2024-140QA
Orbit
LEO
Country
Flag of CNCN / PRC
Related business
Manufacturer
SAST
Mission
Spacecraft
Bus & Motor
Unknown
Mass
Unknown
Launch date (UTC)
2024-08-06 (2 years ago)
Launch vehicle
Unknown
Launch site
Taiyaun Space Center, China (TSC)
Object type
Payload
Rocket body
Debris
Shape & HBR
Unknown shape, 0.1 m
Radar Cross Section
Small (<0.1 m²)

Expand to show TLE details & history
Last TLE update: 15 hours ago

TLE from 15 hours ago
0 CZ-6A DEB
1 61132U 24140QA  26171.29083983  .00002278  00000-0  67847-3 0  9997
2 61132  88.9819 270.3843 0040422 348.1493  11.8754 14.42376455 95921
Epoch: 2026-06-20T06:58Z
TLE epoch observation values (Epoch: 2026-06-20T06:58:48.561Z)
Latitude
-0.00001°
Longitude
-102.82561°
Altitude
725.542 km
Speed
7.507 km/s
True Right ascension
18h 01m 32s
True Declination
0° 00' 00"
Sunlit
Object was in full shadow at epoch
Visualization orbit readout
Latitude
Unknown
Longitude
Unknown
Altitude
Unknown
Speed
Unknown
Apparent Right ascension
Unknown
Apparent Declination
Unknown
Sunlit
N/A
Visualization observer readout
Local Sidereal Time
08:42:37
Azimuth
Unknown
Elevation
Unknown
Doppler factor
Unknown
Orbital elements
Apogee altitude
776.38 km
Perigee altitude
718.773 km
Semi-major axis
7,125.714 km
Eccentricity
0.00404
Inclination
88.9819°
RAAN
270.3843°
Arg. of periapsis
348.1493°
True anomaly
11.97119°
Mean anomaly
11.8754°
Eccentric anomaly
11.92325°
Mean motion
3.60828 °/min
Orbital period
99.77 mins
BSTAR
0.00067847
Loading maneuver chart data...
Computing Atmospheric mass density...
Loading historical data...
Loading historical data...
Loading historical data...
Loading historical data...
Loading historical data...
Loading historical data...
Loading historical data...

Documentation

Showing up to 5 results
|